007  
ASUS41 KBGM 241910  
RWRBGM  
 
REGIONAL WEATHER ROUNDUP  
NATIONAL WEATHER SERVICE BINGHAMTON NY  
300 PM EDT SUN MAR 24 2019  
 
NOTE: "FAIR" INDICATES FEW OR NO CLOUDS BELOW 12,000 FEET WITH NO  
SIGNIFICANT WEATHER AND/OR S TO VISIBILITY
.  
 
* = STATION(S) THAT DOES NOT REPORT PRECIPITATION, SUCH AS RAIN,  
SNOW, ETC, ALSO NO THUNDER OR FOG.
 
 
NYZ009-015>018-022>025-036-037-044>046-055>057-062-242000   
..CENTRAL NEW YORK
 
 
 
CITY SKY/WX TMP DP RH WIND PRES REMARKS
 
BINGHAMTON FAIR 44 19 36 W15G22 30.01F  
CORTLAND PTSUNNY 43 23 45 SW12 30.02F  
DANSVILLE FAIR 52 15 23 VRB6G17 30.03F  
ELMIRA FAIR 48 19 31 SW7 30.04F  
SENECA FALLS CLOUDY 46 25 42 W9 30.02F  
ITHACA FAIR 45 22 40 SW8 30.04F  
HAMILTON SUNNY 46 19 34 W5 30.00F  
MONTICELLO NOT AVBL  
PENN YAN FAIR 47 22 37 SW8 30.02F  
ROME FAIR 48 27 44 W13 30.01F  
SIDNEY SUNNY 48 19 32 W12G21 30.02F  
SYRACUSE CLOUDY 46 27 47 SW13 30.02F  

 
 
PAZ038>040-043-044-047-048-072-242000   
..NORTHEAST PENNSYLVANIA
 
 
 
CITY SKY/WX TMP DP RH WIND PRES REMARKS
 
HAZLETON FAIR 52 10 19 W6 30.07F  
SCRANTON FAIR 52 18 26 SW12 30.05F  

 

 
KEY  
WCI = WIND CHILL INDEX  
VSB = VISIBILITY  
HX = HEAT INDEX  

 
 
 
CLICK HERE TO GO TO PREVIOUS BULLETINS.

The Nexlab NY Page
The Nexlab PA Page Main Text Page